Wind_Speed
25 25 24 24 22 21 19 18 17 16 15 15 13 13 12 12 12 11 10 9 8 6 5 4 3 3 2 3 4 4 6 7 7 8 9 10 10 11 12 12 13 14 15 17 18 19 21 21 23 25 26 27 28 29 31 31 32 33 32 33 34 33 32 33 38 49 55 54 54 55 54 54 56 56 55 56 55 53 53 53 51 50 50 49 48
25 24 23 22 21 19 18 17 17 16 15 14 13 13 13 13 12 11 10 9 7 6 5 5 4 3 3 4 5 6 7 7 8 9 10 10 11 12 13 14 15 16 17 19 20 21 23 24 25 27 28 29 30 30 31 32 33 34 34 34 36 36 34 34 37 44 53 56 56 57 56 56 57 57 56 56 56 54 54 53 51 50 50 49 49
24 23 22 21 20 18 18 17 16 15 14 14 14 14 14 13 12 11 10 8 7 6 6 5 4 4 4 5 6 7 8 8 9 10 10 11 12 13 15 16 17 18 19 20 22 22 24 25 26 28 29 29 29 29 31 33 34 36 36 36 37 38 36 35 36 41 48 55 58 59 59 58 59 60 59 58 56 55 55 55 53 51 51 50 50
23 22 21 20 19 18 17 16 16 15 15 15 15 15 14 13 12 11 10 9 7 6 6 4 4 5 5 6 7 8 9 9 10 11 11 12 13 14 16 17 18 19 20 21 23 24 25 26 26 27 28 29 29 30 32 33 35 36 37 37 38 39 38 37 37 39 43 50 57 60 60 60 61 62 61 59 58 57 56 56 55 54 52 51 51
22 21 19 19 18 18 17 17 16 16 16 16 16 15 15 13 13 11 10 9 7 6 5 5 5 5 6 6 7 8 9 10 11 12 12 13 15 15 16 18 19 20 21 22 23 24 25 26 26 27 29 31 32 33 34 35 36 37 38 39 39 40 41 40 40 39 41 47 55 59 61 62 63 63 61 59 59 59 58 57 56 55 53 52 51
21 20 19 19 19 18 18 18 17 17 17 17 16 16 15 13 12 11 10 8 7 6 5 5 5 6 6 7 7 8 9 11 12 12 14 14 15 17 18 19 20 21 22 23 23 24 25 26 27 28 30 32 34 35 36 37 38 40 41 41 42 43 44 44 43 43 43 47 53 58 61 63 64 65 63 59 58 59 58 58 58 55 53 53 52
20 20 20 19 19 19 19 19 18 18 17 17 16 16 14 13 12 10 9 7 6 6 6 6 6 6 6 7 8 9 10 11 13 13 15 16 17 18 19 20 21 22 22 23 23 24 26 27 29 30 32 34 36 37 39 40 41 43 43 44 45 46 47 47 46 45 46 48 52 56 59 61 63 64 64 61 58 56 53 52 54 55 54 53 53
21 21 20 20 20 20 20 19 19 18 18 17 16 15 14 12 11 9 8 7 7 7 6 6 5 6 6 7 8 10 11 12 14 15 16 18 19 20 21 23 23 23 23 23 24 25 27 29 30 32 34 35 37 39 40 41 44 46 46 46 46 47 48 49 48 47 46 47 51 55 56 59 61 62 62 59 56 54 51 47 49 53 53 52 51
22 22 21 21 21 20 20 20 19 19 18 17 16 15 13 11 10 9 8 8 7 6 6 5 5 6 7 8 9 10 12 13 15 17 19 20 21 22 23 24 25 25 25 26 26 28 29 31 33 34 36 37 38 40 41 42 44 46 48 48 48 48 49 50 49 48 47 48 52 54 54 56 59 58 57 56 53 53 52 50 51 52 51 51 50
23 23 22 22 22 21 21 20 20 20 19 17 16 14 12 11 10 10 9 8 7 6 5 5 5 6 7 8 10 11 13 15 17 19 20 22 23 23 24 25 25 27 28 29 30 31 32 34 35 37 38 39 41 42 43 44 45 46 48 48 49 48 48 49 50 48 46 47 50 51 51 54 56 55 55 55 54 53 53 53 53 52 50 51 52
24 24 23 23 22 22 22 21 21 20 18 16 15 13 12 11 10 10 9 7 6 6 6 6 6 7 8 9 11 12 14 16 17 19 21 23 24 25 26 27 27 29 30 32 33 34 35 37 38 39 40 42 43 45 46 47 48 48 49 50 49 47 45 45 46 46 45 46 48 50 50 53 55 54 55 55 54 53 52 52 52 52 51 50 52
25 25 24 24 23 23 22 22 21 19 18 16 15 14 13 12 10 9 8 7 7 7 7 7 7 8 9 10 11 13 15 17 18 20 22 23 24 26 27 28 29 30 32 33 35 36 38 39 40 42 43 44 46 47 48 50 51 52 52 53 52 49 45 41 40 41 43 44 47 49 50 53 54 53 53 53 52 52 52 51 51 52 51 49 50
27 26 26 25 25 24 23 22 20 19 18 16 15 14 13 11 10 9 8 8 7 7 7 8 8 8 9 10 12 14 16 18 20 21 23 24 25 26 27 29 30 31 32 34 35 37 39 41 42 44 45 46 47 48 50 52 54 54 54 54 54 52 50 45 40 39 40 42 45 48 50 51 52 53 52 51 52 52 52 52 51 49 48 48 51
28 28 27 26 25 24 23 22 20 19 18 16 15 14 13 11 10 9 9 8 8 7 7 8 8 9 10 11 13 15 17 19 21 22 24 25 26 27 28 30 31 32 33 34 36 38 40 42 44 46 47 48 48 48 50 52 54 55 55 55 55 53 53 50 45 42 41 41 44 47 49 49 50 52 52 50 50 51 51 51 50 48 49 51 52
30 29 28 27 26 25 23 22 21 19 18 17 15 14 13 12 10 10 9 8 8 7 7 8 9 10 11 13 14 17 19 21 22 24 25 26 27 28 29 30 31 32 33 35 37 39 41 42 44 46 48 48 48 48 49 50 52 54 55 56 57 57 56 53 48 44 43 42 44 47 48 49 50 51 50 48 47 48 48 49 49 50 52 52 52
31 30 29 27 26 25 23 22 21 20 18 17 16 14 13 12 11 10 9 8 7 8 8 9 10 12 13 14 16 18 20 22 23 25 26 27 28 29 30 31 31 33 34 36 38 40 41 42 44 46 47 48 48 48 48 49 51 53 54 56 57 58 58 55 50 46 44 43 44 46 47 48 48 48 47 46 46 47 48 49 50 50 49 48 49
32 30 29 28 27 25 24 22 21 20 18 17 16 14 13 12 11 9 8 8 8 8 9 10 11 12 14 16 18 19 21 22 24 26 27 28 29 30 31 31 32 34 35 37 39 40 41 43 44 46 47 48 49 49 48 49 50 51 52 52 54 56 56 54 52 50 47 45 46 47 47 47 46 45 45 44 43 43 44 46 46 44 44 45 46
32 31 30 28 27 25 24 23 21 19 18 17 16 14 13 11 10 9 8 8 9 9 10 11 12 14 15 17 19 20 22 23 25 26 27 28 29 30 31 33 34 35 37 38 40 41 42 43 44 45 47 48 48 49 49 49 49 49 48 47 48 51 52 51 51 52 52 52 50 48 46 45 44 42 41 40 39 38 38 40 41 40 41 43 43
33 32 30 29 27 25 24 22 21 19 18 17 16 14 12 11 10 9 9 9 10 10 11 11 13 15 17 19 20 21 22 24 25 26 27 28 29 31 32 34 35 37 38 40 41 42 43 44 44 45 46 47 47 48 49 48 46 45 45 44 45 48 48 48 49 51 52 51 49 47 47 46 45 43 41 39 38 36 36 37 38 37 38 39 40
33 32 30 29 27 25 24 22 21 20 18 16 15 13 11 10 10 9 10 10 10 11 12 12 14 16 17 19 20 21 23 24 25 26 27 28 30 31 33 35 37 38 40 42 43 44 45 46 46 45 45 46 47 47 48 47 44 42 42 41 41 43 44 44 44 44 44 46 47 49 50 49 47 46 45 43 39 37 36 36 36 37 38 39 40
34 32 30 29 27 25 24 22 21 19 17 15 14 12 11 10 10 10 10 11 11 12 13 13 15 16 18 19 20 22 23 24 25 25 26 28 29 31 33 35 37 39 41 42 44 45 47 47 47 47 47 47 47 48 48 47 44 43 42 39 37 38 39 39 39 39 40 43 47 48 49 48 47 46 45 44 41 38 36 37 37 37 39 40 41
34 32 30 28 27 25 24 22 21 19 16 15 13 12 11 11 10 11 11 12 13 13 14 15 16 17 18 19 21 22 23 24 25 25 26 28 29 31 33 34 36 38 40 42 43 45 46 47 47 48 48 48 48 48 48 47 46 45 43 41 39 38 37 36 36 37 39 43 45 46 46 45 46 45 44 43 41 38 38 39 39 37 37 38 39
33 31 30 28 27 25 24 22 20 18 16 14 13 12 11 11 11 12 13 14 14 15 15 15 17 18 19 20 21 22 23 24 25 26 27 28 30 31 32 33 35 36 38 41 42 44 45 46 47 47 47 47 48 48 47 46 45 44 43 42 41 40 38 36 35 37 40 43 43 44 43 43 44 44 43 43 42 40 39 40 39 35 33 34 35
33 31 30 28 27 25 23 21 19 17 16 14 13 12 12 13 13 14 15 15 15 15 15 17 19 20 21 21 21 22 23 24 25 26 27 28 30 31 32 33 34 35 37 38 40 42 43 44 44 45 45 45 45 45 45 44 43 43 42 41 40 39 36 34 36 40 43 42 41 42 43 43 43 43 41 40 40 39 39 38 35 32 31 32 33
33 32 30 28 26 24 23 21 19 17 15 14 13 13 14 15 15 16 16 15 15 16 17 19 21 22 23 22 22 22 22 23 25 26 27 28 29 30 31 32 33 34 36 37 38 39 40 40 41 42 42 43 43 43 44 43 43 42 42 41 40 39 36 37 41 42 40 39 40 42 42 41 41 41 40 39 37 36 36 36 34 31 31 31 33
33 31 30 28 26 24 23 21 19 17 16 14 14 15 16 16 16 16 16 15 16 17 19 21 22 23 23 23 22 22 23 24 25 26 27 28 30 31 32 32 33 34 35 36 37 38 38 38 39 40 40 40 40 41 42 42 42 42 41 41 41 40 38 39 41 39 37 39 41 42 41 40 39 39 38 37 37 36 36 36 35 33 32 32 33
33 31 30 28 26 25 22 20 19 17 16 15 16 16 17 17 16 16 16 16 17 19 21 23 23 23 24 23 23 23 23 24 26 27 28 29 31 32 32 33 33 34 35 36 37 37 37 38 37 37 38 38 38 39 40 41 42 42 42 42 42 41 40 40 38 35 35 38 38 38 38 38 37 37 37 37 37 37 37 36 36 34 33 33 34
32 31 30 28 26 24 22 21 19 17 17 17 17 17 17 17 17 16 16 17 19 20 22 23 23 24 24 23 23 23 24 25 26 28 29 30 31 32 32 33 34 34 35 36 36 36 36 37 37 37 37 38 39 40 40 41 42 43 44 43 43 42 42 41 39 37 37 37 36 36 37 36 36 37 38 38 38 37 36 35 34 34 33 33 34
33 31 30 28 26 24 23 21 19 18 18 18 18 18 17 17 16 16 17 19 20 21 22 23 23 23 22 23 24 24 25 25 26 27 27 28 29 30 30 31 32 33 33 33 34 35 36 37 37 38 38 40 41 42 43 43 43 44 45 45 45 45 45 44 43 42 41 39 38 39 39 39 39 40 40 40 40 38 36 34 33 33 33 33 32
33 32 30 28 26 24 23 21 20 19 19 19 18 18 18 17 17 18 19 20 20 21 21 22 22 21 21 21 22 23 24 24 24 24 25 26 26 27 28 29 30 31 31 32 32 34 36 37 37 38 39 40 42 43 44 45 45 46 47 47 47 46 46 45 44 43 42 39 38 39 40 41 41 41 41 42 41 39 36 33 32 32 32 31 29
33 32 30 28 26 24 22 21 21 20 20 19 19 19 19 19 19 19 19 19 19 20 20 20 20 20 19 19 19 20 21 21 22 23 24 24 25 26 27 28 29 30 31 32 33 34 36 37 37 38 39 40 41 42 43 44 45 46 47 48 48 47 47 46 45 43 41 39 38 39 40 41 41 40 40 40 40 38 34 32 31 31 30 28 27
32 31 29 27 25 24 23 22 22 21 20 20 20 20 20 21 20 20 19 18 18 19 19 18 18 18 18 18 19 19 19 20 21 22 23 24 25 25 26 27 28 29 30 31 32 33 34 35 36 37 38 39 40 41 41 42 43 44 46 47 47 47 46 46 45 43 40 38 38 40 39 39 39 39 38 37 36 33 31 29 29 28 27 26 24
31 29 28 27 26 25 24 23 23 22 21 21 21 22 22 22 21 19 18 18 18 18 17 17 17 16 16 17 18 19 19 20 21 22 22 23 24 25 26 26 27 28 30 30 31 32 32 33 34 35 36 38 39 40 40 40 41 42 43 44 45 46 46 46 45 44 40 37 37 38 38 37 38 38 36 33 31 30 29 28 27 26 25 24 22
31 29 28 27 26 26 25 24 23 23 22 23 23 24 24 22 20 19 18 18 17 17 16 16 15 15 15 16 17 17 18 19 20 21 22 24 24 25 26 26 25 26 28 30 31 31 31 32 33 33 35 36 37 38 39 39 40 41 42 42 43 45 46 46 46 44 40 37 35 36 36 36 36 36 33 30 28 28 28 27 26 25 23 22 21
32 31 29 28 27 26 26 25 24 24 24 25 26 25 24 22 20 20 19 18 17 16 15 15 15 15 15 15 16 17 17 19 20 21 22 24 24 25 26 26 26 27 28 30 30 30 30 31 32 32 34 34 35 36 37 38 39 40 41 42 44 45 46 46 46 44 40 36 35 35 36 35 34 32 30 28 27 27 27 26 25 23 22 20 20
32 32 31 30 29 28 27 27 26 26 27 27 27 26 24 22 21 21 19 17 15 14 13 14 14 15 15 15 15 16 17 18 19 20 21 23 24 25 26 27 28 29 30 30 30 29 28 29 30 31 32 33 33 34 35 36 37 39 40 42 44 46 47 46 45 43 39 35 33 33 34 33 31 29 28 27 26 26 26 25 24 22 20 19 18
33 33 32 31 31 30 29 28 28 28 29 29 28 26 24 23 23 21 19 17 15 14 14 14 14 14 15 15 15 16 16 17 18 19 20 21 22 23 24 26 27 28 28 29 29 28 27 27 28 30 31 32 32 33 34 35 36 38 40 42 44 46 46 44 42 39 36 34 32 32 32 31 28 26 26 27 26 26 25 24 23 21 19 18 16
34 33 32 32 32 31 31 30 30 31 30 29 27 25 24 24 23 21 19 17 16 15 15 15 14 15 15 16 16 16 16 16 16 17 18 19 20 21 22 23 24 26 27 27 28 27 27 26 27 28 30 31 31 32 33 34 36 38 40 42 44 45 45 43 39 36 33 32 32 31 31 29 27 25 25 26 26 26 25 23 22 20 18 17 15
35 35 34 34 33 33 32 32 32 31 30 28 26 25 25 24 23 20 18 17 16 15 15 15 15 16 16 17 17 17 16 16 17 17 17 18 19 20 21 22 23 24 25 26 27 27 26 26 27 27 29 30 31 32 32 33 35 37 39 41 43 44 45 43 40 37 34 33 32 31 30 28 26 23 23 24 25 25 24 22 20 18 17 15 13
37 36 36 36 36 35 34 34 33 32 30 28 26 26 26 25 22 20 18 17 16 15 15 15 15 16 17 17 18 18 17 17 18 18 18 18 18 19 20 21 22 23 24 26 27 27 26 26 27 27 28 30 31 32 32 33 34 35 37 39 41 43 44 44 42 38 35 33 32 31 29 27 24 23 23 24 25 24 23 21 19 17 15 13 12
38 38 38 38 37 37 36 35 34 32 29 27 26 26 26 24 22 20 19 17 16 16 15 15 15 16 16 16 17 17 17 17 17 17 17 17 17 18 19 20 21 22 23 25 26 27 27 27 27 27 28 29 30 31 32 33 33 34 35 37 38 40 42 44 43 40 37 34 31 29 27 25 23 23 24 25 25 24 22 20 18 16 14 12 11
39 39 39 39 38 38 37 35 33 31 28 27 27 27 27 25 23 21 20 18 17 16 15 15 15 15 14 14 15 15 15 16 16 16 16 16 17 17 18 18 20 21 22 24 26 27 27 27 27 27 28 29 30 31 32 33 33 34 34 35 36 38 40 42 43 42 39 35 32 29 25 23 22 23 24 24 23 22 21 19 17 15 13 11 9
40 40 40 40 39 38 36 34 32 30 28 28 28 29 29 27 24 22 20 19 18 17 16 15 14 14 14 14 13 13 14 14 14 15 15 16 16 17 17 18 19 20 21 22 24 26 27 27 27 26 26 27 28 29 30 31 33 33 33 34 34 35 37 40 42 42 41 37 33 28 24 22 22 22 23 22 22 21 20 19 17 14 12 10 7
42 42 41 41 40 38 36 34 32 30 30 30 31 31 30 28 25 22 21 19 18 17 16 15 14 13 13 13 13 13 13 13 13 14 15 15 16 17 17 18 18 19 20 21 23 24 26 27 27 26 25 25 26 26 27 28 30 31 32 33 33 34 35 37 39 41 41 38 34 28 24 21 21 21 21 21 20 20 19 18 16 14 11 8 5
43 42 42 41 40 39 37 35 33 32 32 33 33 32 30 28 25 22 21 19 18 17 16 15 14 13 13 13 13 12 12 12 13 14 15 15 16 17 18 18 19 20 20 21 22 23 24 26 27 27 26 26 25 25 26 26 27 28 30 31 31 32 33 34 36 38 39 38 35 29 24 21 20 19 19 19 18 18 17 16 15 12 9 6 3
44 43 43 42 41 39 38 35 34 34 34 34 33 32 31 28 25 22 20 19 17 17 16 16 15 14 14 13 13 12 12 12 13 13 14 15 16 17 18 19 19 20 21 21 22 23 24 25 26 27 27 27 26 26 25 25 26 26 27 28 29 29 30 31 33 34 36 37 36 31 24 20 18 17 17 17 16 16 15 13 12 10 6 3 2
45 44 44 43 41 40 38 36 35 35 35 35 34 33 30 27 24 22 20 18 17 17 16 16 15 15 14 13 13 12 12 12 13 13 14 15 16 17 18 19 19 20 20 21 22 23 23 24 25 26 27 27 27 26 25 25 25 25 25 26 27 27 28 29 30 31 32 33 34 32 27 21 17 16 16 15 14 14 12 11 9 7 4 0 4
46 46 45 44 42 41 39 37 36 37 36 35 34 32 29 26 24 22 20 18 17 17 16 16 15 15 14 13 13 13 12 12 12 13 14 15 16 17 18 19 20 20 21 21 22 23 23 24 25 25 26 26 26 26 25 25 24 24 24 25 25 26 27 27 27 28 29 29 31 31 28 23 18 15 14 14 13 11 10 9 7 5 3 1 4
47 47 46 45 43 41 39 38 38 37 36 35 33 31 28 25 23 21 20 19 18 17 17 16 15 14 14 13 13 13 12 12 12 13 13 14 16 17 18 19 20 21 21 22 22 23 23 24 24 25 26 26 26 26 26 25 24 24 24 24 23 24 24 25 25 25 26 26 27 28 27 25 20 15 12 12 11 10 8 7 5 4 2 1 4
47 47 46 44 43 41 39 39 38 37 36 34 32 29 27 25 23 21 20 19 18 17 17 16 15 15 14 14 13 13 13 12 12 13 13 14 16 17 18 19 20 21 22 22 23 24 24 24 24 25 26 26 26 26 26 25 24 24 23 23 23 22 23 23 23 23 23 23 24 24 25 24 21 17 13 10 9 8 6 5 3 3 2 1 3
47 46 45 44 42 40 40 39 38 37 35 33 30 28 25 24 22 21 20 19 18 18 17 16 15 15 15 14 14 13 13 13 13 13 14 15 16 17 18 20 20 21 22 23 23 24 25 25 25 25 26 26 26 26 26 25 25 24 23 22 22 22 22 22 21 21 22 22 22 21 22 21 20 17 14 11 9 7 5 4 2 1 0 2 4
Wind_Direction
163 164 164 165 168 171 174 178 181 184 187 188 190 187 183 180 177 178 181 182 185 186 189 197 208 231 259 292 313 320 323 324 325 323 321 321 322 323 325 327 329 329 330 330 329 330 331 332 331 330 331 332 333 333 332 331 329 327 327 325 324 323 323 319 313 310 311 313 312 312 314 314 313 313 312 311 312 312 311 310 310 309 308 306 305
164 167 168 170 173 177 180 182 183 185 187 185 183 180 179 178 178 182 184 185 187 188 198 211 220 243 268 292 306 311 313 315 315 317 319 320 320 322 323 323 324 325 325 326 327 328 329 330 331 330 330 331 332 332 330 329 327 326 325 324 322 321 321 317 313 309 308 311 312 311 312 311 310 311 310 309 310 310 308 308 307 307 306 305 304
170 172 175 176 178 181 183 184 185 184 183 181 178 178 180 180 180 182 184 186 189 193 206 220 236 260 279 292 300 304 306 308 311 313 315 317 318 319 320 321 322 324 325 327 328 329 330 330 331 330 330 331 332 332 329 327 325 323 322 321 319 318 317 314 310 307 306 308 310 311 311 310 309 309 309 308 308 309 307 307 307 306 306 305 304
176 178 181 181 182 183 184 185 184 182 180 179 180 181 183 183 182 182 185 189 193 201 215 232 254 275 287 293 297 299 300 303 307 310 312 314 317 318 320 322 324 326 328 329 330 330 330 330 331 331 331 330 330 329 326 324 322 320 319 319 317 316 315 312 309 306 304 304 307 310 310 309 308 308 308 307 308 307 306 306 307 307 307 306 304
182 183 185 186 186 185 186 185 183 181 181 181 183 184 185 185 184 184 189 195 201 212 229 251 267 279 285 287 292 296 301 306 308 312 315 316 318 319 321 324 325 327 329 329 329 329 330 331 332 331 329 328 327 326 324 323 322 320 319 319 318 316 314 312 310 307 304 302 304 308 308 308 307 307 307 308 307 307 307 307 308 308 306 304 303
187 187 188 189 188 186 186 185 183 182 184 185 186 187 187 187 187 191 197 203 214 228 244 260 266 271 277 284 295 301 306 311 311 313 315 316 319 321 322 324 325 327 328 328 329 329 329 330 330 329 328 327 327 327 326 325 323 322 321 320 319 317 315 313 312 310 306 304 304 306 308 308 307 307 308 309 307 306 307 308 308 307 306 304 303
189 190 189 190 189 187 185 185 184 185 187 189 190 190 189 190 193 197 204 212 227 241 247 254 259 268 280 292 303 308 310 312 312 313 315 317 319 321 322 323 324 326 326 326 327 326 327 328 328 328 328 328 328 327 327 326 324 323 322 321 319 318 316 315 314 311 308 306 305 305 305 306 306 306 307 308 306 305 306 307 307 307 306 305 303
192 191 190 189 189 188 186 185 186 188 191 192 193 193 193 195 199 204 213 224 232 239 243 249 261 275 291 300 302 306 308 308 310 312 315 317 319 321 323 323 323 324 323 323 324 325 327 328 329 329 329 329 328 327 326 325 324 322 322 321 320 318 316 315 314 312 309 306 304 304 303 303 304 304 306 306 305 305 306 305 303 304 305 304 301
194 192 190 190 190 189 188 188 190 192 194 194 194 196 197 200 206 214 221 228 230 235 242 252 270 282 291 298 299 303 306 307 311 314 316 318 320 321 322 322 322 322 321 323 324 326 327 328 329 329 328 328 327 326 325 324 323 322 321 321 320 318 317 316 314 312 310 306 304 303 302 301 302 303 303 303 303 303 304 304 302 303 305 305 302
195 193 192 192 192 192 192 193 194 194 194 195 196 198 202 206 213 218 222 225 227 235 245 255 272 282 288 294 297 302 307 310 314 317 318 319 319 320 320 320 321 321 322 324 325 327 328 328 328 327 327 326 325 324 324 323 323 322 321 321 320 319 318 316 315 313 309 305 303 302 301 299 300 301 300 300 302 303 303 304 303 304 305 305 302
196 195 195 194 194 195 196 196 195 194 194 196 199 202 207 212 216 218 221 225 230 238 249 258 269 279 285 292 299 304 309 312 315 317 318 318 318 319 320 320 322 323 323 324 325 326 327 327 327 327 326 326 325 325 325 324 324 323 323 322 322 321 319 316 314 312 308 304 303 301 299 298 299 301 300 301 303 303 303 303 302 302 302 301 300
197 197 196 197 197 197 197 196 195 195 196 199 203 207 211 213 215 218 221 228 235 243 252 262 272 281 288 295 302 306 310 312 315 315 315 315 316 318 319 320 321 322 323 325 325 326 326 326 326 327 327 327 327 327 327 326 326 326 325 325 324 323 321 315 311 309 307 304 302 301 299 299 300 301 301 302 303 302 302 301 300 300 299 298 297
198 198 198 198 198 197 197 196 196 197 199 202 206 209 211 213 214 218 222 228 237 247 257 268 277 285 295 302 306 309 312 314 314 314 314 314 315 317 318 319 320 321 323 324 325 325 326 326 325 326 328 330 330 330 329 328 327 326 326 325 324 322 320 316 312 308 305 303 301 299 300 300 301 301 302 302 302 302 302 300 299 299 297 296 295
199 199 199 198 198 197 197 197 198 200 202 206 208 209 211 212 215 219 224 230 240 251 263 275 285 293 301 307 310 312 314 314 314 314 313 314 315 316 317 318 319 321 323 324 325 325 326 326 326 327 329 331 333 333 331 329 327 326 325 324 323 321 320 318 316 313 309 306 303 301 301 301 301 301 301 302 301 300 300 300 299 298 296 295 295
199 199 199 198 198 198 198 199 200 203 205 207 208 209 211 213 216 220 225 233 244 258 271 282 292 299 306 311 313 314 315 314 313 313 313 314 314 315 316 316 318 320 322 323 325 325 327 327 328 329 329 331 333 333 332 330 327 325 324 323 323 322 321 321 320 317 313 309 305 303 303 302 302 302 303 303 300 298 298 298 297 296 297 297 295
200 199 199 199 199 199 200 202 204 206 207 208 208 209 212 215 218 222 230 242 255 268 279 288 297 303 308 312 313 314 314 312 312 312 313 314 314 314 314 315 318 320 322 324 325 327 329 329 329 329 329 330 332 333 333 330 328 326 325 324 324 323 323 323 321 317 313 309 306 305 304 303 302 302 301 301 299 299 301 299 297 298 299 297 294
201 200 200 200 200 200 202 205 207 208 207 207 208 210 213 216 221 228 240 254 265 276 284 291 299 304 309 312 312 312 311 311 311 312 313 313 312 313 314 316 319 321 323 325 326 328 329 330 330 331 331 332 333 334 332 331 329 329 327 326 325 324 323 324 322 319 318 314 310 308 306 304 303 302 302 303 303 305 305 302 301 303 302 297 293
201 200 200 200 201 202 204 206 208 208 207 207 209 211 214 219 227 238 250 261 268 277 285 293 301 307 310 310 310 310 310 311 311 312 311 312 312 314 317 319 321 322 323 324 326 327 329 331 333 334 334 334 334 333 332 332 332 330 328 325 323 322 323 325 324 323 321 318 315 315 314 313 311 309 309 308 308 309 307 304 304 306 302 297 294
201 201 201 202 203 204 205 206 206 206 207 208 209 212 217 224 234 245 256 265 272 279 289 297 304 307 307 307 308 310 311 311 311 311 313 315 317 318 320 322 322 323 323 324 324 326 329 332 335 336 336 335 334 333 333 334 333 330 326 323 322 323 326 326 323 321 319 318 319 321 321 321 319 317 315 314 312 312 310 308 308 306 302 300 298
201 201 203 203 204 204 205 205 205 205 207 209 211 217 224 232 243 253 261 269 277 285 292 297 301 302 303 306 308 310 310 311 312 314 317 319 320 321 322 323 323 324 325 326 326 327 329 331 335 336 336 335 335 334 334 335 332 327 324 323 324 325 325 322 319 318 319 320 322 322 321 321 321 319 319 319 316 314 314 315 314 310 307 307 305
201 202 203 203 204 204 203 203 204 205 208 211 216 223 232 240 250 258 266 274 280 284 289 292 296 300 303 307 309 309 310 311 314 317 319 321 322 323 323 324 325 325 326 328 329 330 330 332 334 335 335 335 335 334 334 334 331 327 326 325 322 320 319 318 319 321 323 323 324 324 323 322 321 320 320 320 319 316 316 319 318 315 312 310 310
202 202 203 204 203 203 202 203 204 206 210 215 221 230 238 246 255 263 269 275 276 279 284 290 297 303 306 308 309 310 311 313 316 319 321 322 324 325 326 327 328 328 329 329 330 331 332 333 334 335 336 336 335 334 333 332 331 330 328 326 323 321 320 318 319 322 323 323 324 324 324 325 325 322 319 320 320 317 315 319 321 319 317 314 313
203 203 203 204 203 202 202 203 204 207 213 219 226 234 242 250 260 265 266 268 271 276 286 295 300 303 304 306 309 311 313 315 317 320 323 324 325 326 327 329 330 331 331 331 330 331 332 334 335 336 337 336 334 333 332 332 332 331 330 329 326 323 320 319 322 322 320 320 322 324 324 326 328 325 320 320 320 317 316 320 322 320 319 317 315
203 203 203 203 202 202 203 204 207 211 216 223 230 238 248 254 258 260 260 263 270 281 291 296 298 299 300 304 307 310 313 316 319 322 324 325 326 326 327 330 331 332 332 331 331 332 334 336 337 337 336 334 333 332 331 332 333 333 333 332 329 327 326 325 323 320 319 320 323 323 322 323 324 323 321 321 322 321 320 323 322 319 317 315 315
204 203 203 203 202 203 204 206 210 215 218 226 234 242 249 252 253 255 259 266 277 286 291 293 295 298 300 304 308 312 316 319 321 324 325 325 326 327 328 331 333 333 332 331 332 335 338 338 338 336 335 333 332 331 332 334 336 337 338 338 337 337 334 326 322 323 325 325 322 320 320 320 320 320 319 320 321 323 324 323 320 317 317 317 317
204 203 203 203 203 205 207 210 213 216 221 229 237 243 246 248 251 256 263 272 282 288 290 293 296 299 302 306 310 316 320 322 324 326 326 326 327 329 331 333 333 332 332 332 334 337 339 339 337 335 333 332 333 335 337 340 341 342 343 344 344 341 334 328 329 331 330 325 321 319 318 319 318 318 318 319 319 320 323 322 318 317 319 320 321
206 205 204 204 205 207 209 212 215 218 224 232 237 241 244 246 251 259 267 276 283 287 290 294 297 300 304 308 312 318 322 324 326 327 328 329 330 331 332 333 333 332 333 334 336 338 338 337 336 334 332 333 337 341 343 346 347 348 349 349 347 343 339 337 337 332 326 324 324 322 319 318 318 319 321 321 319 318 321 321 318 318 321 322 322
207 207 206 206 208 210 211 213 216 221 227 232 236 239 242 247 254 262 270 278 283 287 290 294 297 301 305 309 314 319 323 326 328 329 331 332 332 331 332 333 333 334 336 336 337 337 336 335 334 333 333 336 339 342 344 347 349 350 350 349 347 345 343 342 339 334 331 332 332 330 327 325 324 324 324 322 319 318 321 321 318 319 322 322 321
207 208 208 209 210 211 212 215 218 224 228 232 235 239 243 249 257 264 270 275 281 286 290 294 298 303 309 313 317 321 324 328 331 333 333 332 331 331 333 334 335 336 337 337 337 336 334 334 335 336 338 340 342 343 345 347 347 347 347 345 344 343 342 342 340 338 337 337 336 334 333 332 330 328 327 324 321 321 322 321 319 321 322 321 318
208 208 209 211 212 213 215 218 221 226 230 233 237 241 246 252 258 263 268 274 280 286 291 295 301 306 312 317 321 323 326 330 332 332 331 331 331 332 334 335 335 335 336 336 336 335 334 335 339 343 344 344 345 345 346 346 344 343 342 341 340 340 340 340 340 339 336 336 336 335 334 332 330 329 327 325 323 323 324 323 322 322 321 319 316
211 211 211 212 213 215 218 222 224 228 232 234 238 242 247 252 256 261 268 275 282 288 293 298 303 308 314 319 323 326 328 329 330 330 330 331 332 334 336 337 336 336 335 335 334 335 336 339 342 344 344 345 345 344 343 341 339 338 337 336 337 339 340 340 341 339 336 335 336 335 333 332 331 330 328 326 324 324 326 326 325 323 321 318 314
214 214 214 215 216 218 221 223 227 230 233 236 240 243 245 249 254 260 267 275 282 288 293 299 304 310 315 320 322 325 327 328 328 329 330 331 334 336 338 339 338 337 336 335 335 338 340 342 344 344 344 344 343 341 340 339 337 336 336 336 337 338 340 341 342 341 338 336 335 333 333 333 333 331 330 329 329 330 330 330 328 324 321 317 312
215 217 217 218 219 220 223 225 229 232 235 239 242 243 245 249 254 261 268 275 282 287 292 298 304 310 315 319 321 324 325 327 328 329 330 332 334 336 338 341 341 338 336 337 339 342 343 344 344 345 345 344 342 340 340 339 338 337 337 337 337 338 339 341 342 343 341 338 335 333 334 335 334 332 332 333 334 335 335 333 330 325 320 316 311
216 218 219 221 223 225 227 229 231 233 236 239 241 242 245 249 255 262 268 274 279 284 290 297 303 309 313 316 319 322 323 325 327 328 330 331 333 335 337 339 338 337 337 339 342 344 344 344 345 346 345 345 345 344 343 342 342 341 340 339 338 338 339 341 342 343 341 338 335 336 337 336 335 334 334 335 336 338 337 334 330 324 320 316 310
218 219 220 222 224 227 229 231 233 235 237 239 240 242 244 249 254 260 266 271 276 282 288 295 301 306 310 314 316 319 322 324 326 327 328 329 330 332 334 334 334 336 340 343 345 347 346 345 345 346 346 347 348 348 347 347 347 346 344 342 341 341 342 342 343 343 341 337 337 338 338 336 336 337 336 336 338 339 338 334 329 324 319 314 309
221 221 222 224 226 228 230 231 233 236 237 239 240 242 244 249 254 259 264 268 274 279 284 291 297 302 307 311 314 317 320 321 323 324 325 327 329 331 332 334 336 339 342 344 347 350 350 347 345 346 347 348 350 351 350 349 349 348 348 347 345 345 345 345 344 342 339 337 338 339 338 337 337 337 338 338 339 339 337 333 329 324 318 314 308
225 225 226 227 229 230 230 232 234 235 237 239 240 243 246 250 255 259 264 269 274 279 283 289 294 299 304 308 311 313 315 317 320 322 324 325 327 329 331 334 336 339 341 343 347 350 351 349 347 346 347 348 350 350 350 349 348 349 350 351 350 349 348 347 345 342 339 338 339 340 339 337 337 338 340 340 340 339 337 332 327 323 318 314 307
228 228 229 230 231 231 232 233 234 235 237 240 241 244 247 251 256 261 265 270 275 278 282 287 292 296 301 304 306 309 312 315 317 319 320 322 324 326 330 333 335 338 340 343 346 349 351 350 348 346 346 347 348 349 349 348 348 349 350 352 353 351 350 349 347 344 342 341 342 342 340 338 338 340 342 342 342 340 336 331 325 321 317 313 306
229 229 229 230 231 232 233 234 234 236 238 240 241 244 248 252 256 261 265 269 273 275 279 284 290 295 300 303 305 309 312 315 317 319 322 326 328 330 332 334 335 337 339 341 344 348 350 350 348 346 346 345 345 346 347 347 348 349 350 352 353 352 352 352 351 349 348 346 345 344 342 341 341 344 346 346 344 340 335 329 323 319 315 311 302
232 231 231 231 232 232 232 233 234 236 238 239 242 245 249 252 255 259 263 266 270 272 276 282 288 293 298 302 305 309 313 317 321 324 329 333 335 335 335 335 335 337 338 339 342 345 347 349 348 346 345 344 343 343 345 346 347 349 350 352 353 353 353 354 354 352 351 350 348 346 344 343 345 349 352 350 346 341 335 329 323 318 313 307 298
235 234 234 234 234 234 233 233 235 236 237 240 243 247 250 252 254 257 260 264 267 270 274 279 284 290 296 300 305 310 314 319 323 327 331 334 336 337 338 338 338 338 337 337 338 340 343 347 347 346 344 343 342 342 342 344 346 348 349 350 352 354 354 355 355 354 353 352 352 349 347 346 350 354 354 351 347 342 336 330 324 318 313 306 298
236 236 236 236 236 235 235 236 237 238 239 242 246 250 252 252 253 255 258 261 264 267 270 275 281 288 294 299 304 308 312 316 321 325 329 332 334 336 339 340 340 339 338 336 336 337 338 342 345 345 343 342 342 342 342 342 344 346 347 348 351 353 354 355 356 355 353 352 353 351 349 350 355 357 355 352 348 344 338 331 326 321 316 309 296
237 237 237 237 237 237 237 238 238 238 240 245 249 252 251 251 251 253 256 259 262 265 267 272 278 285 291 295 299 303 306 311 316 320 323 326 328 332 335 337 338 338 338 336 335 334 335 336 339 341 342 341 341 341 342 342 342 343 345 347 349 351 352 354 355 354 353 352 352 351 350 353 357 358 355 353 350 346 340 334 330 326 320 310 293
238 238 237 237 237 237 237 237 237 239 243 247 249 249 249 249 250 252 254 258 260 263 266 271 275 280 285 289 292 296 301 306 310 314 317 321 324 327 330 331 332 333 334 334 334 334 333 332 333 335 337 339 339 339 340 341 341 342 343 345 346 348 351 353 353 353 353 352 352 350 349 352 357 358 355 353 350 347 344 340 335 331 325 313 290
239 239 238 238 237 237 236 237 237 240 244 246 247 247 247 248 249 250 252 255 258 261 266 270 273 275 279 282 285 290 295 300 304 309 313 316 320 323 326 327 328 329 330 330 330 330 331 330 330 331 332 334 336 337 338 340 341 341 342 343 344 346 349 351 351 351 352 352 353 352 350 351 355 357 357 355 352 349 349 346 340 336 331 317 275
240 239 238 238 237 237 236 237 238 241 243 244 245 246 247 246 246 247 249 252 255 259 263 267 270 273 275 278 281 286 291 296 300 305 310 313 318 322 324 326 327 328 327 326 325 325 326 327 328 329 329 330 332 334 336 337 339 339 340 341 342 345 348 348 348 349 351 351 352 353 353 353 356 359 0 360 358 356 355 353 349 348 346 324 220
240 239 239 238 237 237 236 236 238 241 243 244 244 244 244 243 244 245 247 249 252 255 259 263 266 270 273 276 279 283 288 293 297 302 307 312 317 321 323 326 327 327 327 326 323 321 321 322 323 325 326 326 327 329 331 333 336 337 338 339 340 343 346 347 345 346 349 350 352 354 356 357 359 1 3 4 4 4 4 2 2 7 13 23 186
240 239 238 237 236 235 235 236 238 240 242 243 243 242 241 241 242 243 244 246 248 251 255 258 261 265 269 272 276 279 284 289 295 301 307 312 317 320 322 324 326 327 327 328 326 324 322 320 319 319 320 322 324 326 327 329 331 333 336 337 338 341 344 344 343 344 347 348 350 353 357 360 2 3 4 5 6 8 12 16 19 24 36 143 180
240 239 237 237 236 235 235 236 239 242 242 241 240 239 238 239 239 239 240 242 245 248 251 255 258 262 265 267 271 276 281 286 293 300 306 311 315 318 321 323 325 327 328 329 329 327 325 322 318 316 316 317 319 322 324 325 326 328 331 333 336 339 341 340 340 342 344 346 348 351 356 0 4 5 4 6 9 11 15 25 34 40 53 141 186
241 239 238 237 235 235 235 237 238 239 239 237 236 236 236 236 236 237 238 240 243 246 249 252 255 259 262 265 269 274 280 286 293 300 306 310 314 316 319 322 324 327 328 329 329 328 327 325 322 318 315 314 315 317 319 321 322 324 326 329 333 336 337 336 337 339 341 344 346 349 352 359 6 10 9 8 10 13 18 27 42 60 83 166 204
241 239 237 236 235 235 235 236 236 236 235 234 233 234 234 234 234 236 237 240 242 245 248 251 254 257 260 264 269 274 280 287 293 299 305 310 312 316 319 321 323 326 328 328 328 328 327 326 325 322 318 315 313 312 313 316 318 320 322 324 327 330 332 332 334 337 338 341 344 346 347 353 2 12 17 17 15 16 20 26 40 62 99 232 231
Height
1536 1537 1539 1541 1543 1545 1546 1548 1550 1551 1553 1554 1554 1555 1556 1556 1557 1558 1558 1559 1559 1560 1560 1560 1561 1561 1561 1561 1561 1561 1560 1559 1558 1557 1557 1556 1555 1555 1554 1553 1552 1551 1550 1548 1547 1546 1545 1543 1541 1540 1539 1537 1536 1534 1532 1530 1528 1526 1525 1522 1520 1519 1516 1512 1506 1494 1487 1487 1485 1481 1480 1477 1473 1470 1467 1463 1462 1461 1458 1455 1453 1450 1447 1444 1442
1536 1537 1539 1541 1543 1545 1546 1548 1549 1550 1551 1552 1553 1554 1555 1556 1557 1557 1558 1558 1559 1559 1559 1559 1560 1560 1560 1560 1560 1560 1559 1558 1557 1556 1555 1554 1553 1553 1552 1551 1550 1549 1548 1546 1545 1544 1542 1541 1539 1537 1536 1535 1534 1532 1529 1527 1525 1522 1521 1519 1516 1514 1512 1508 1504 1496 1486 1481 1479 1476 1475 1473 1467 1465 1463 1458 1456 1455 1451 1449 1447 1445 1442 1439 1436
1536 1537 1539 1541 1542 1544 1545 1546 1548 1549 1550 1551 1552 1553 1554 1555 1556 1557 1557 1558 1558 1558 1559 1559 1559 1559 1559 1559 1559 1558 1558 1557 1556 1554 1553 1552 1551 1550 1549 1549 1548 1546 1545 1544 1542 1541 1540 1538 1537 1535 1534 1532 1531 1529 1527 1524 1522 1519 1517 1515 1512 1509 1508 1505 1501 1496 1486 1478 1474 1470 1468 1466 1461 1458 1456 1453 1451 1449 1445 1442 1441 1439 1436 1433 1429
1536 1537 1539 1540 1541 1543 1544 1545 1547 1548 1549 1550 1551 1553 1553 1554 1555 1556 1556 1557 1557 1557 1558 1558 1558 1558 1558 1558 1557 1557 1557 1556 1554 1553 1551 1550 1549 1548 1547 1546 1545 1544 1542 1541 1540 1538 1537 1536 1535 1533 1531 1529 1528 1526 1524 1521 1519 1516 1513 1511 1509 1505 1503 1500 1497 1493 1486 1477 1471 1466 1462 1459 1455 1452 1450 1447 1444 1443 1439 1436 1434 1431 1429 1426 1422
1535 1536 1538 1539 1540 1542 1543 1544 1546 1547 1548 1550 1551 1552 1552 1553 1554 1555 1555 1556 1556 1556 1557 1557 1557 1557 1557 1557 1557 1556 1555 1554 1552 1550 1549 1547 1546 1546 1545 1543 1542 1541 1540 1539 1538 1536 1535 1533 1532 1530 1528 1526 1524 1522 1519 1517 1514 1511 1509 1506 1504 1500 1497 1494 1491 1488 1484 1476 1467 1462 1458 1454 1448 1445 1444 1441 1437 1434 1432 1430 1428 1425 1421 1419 1416
1534 1535 1537 1538 1539 1540 1542 1543 1545 1546 1548 1549 1550 1551 1551 1552 1553 1554 1554 1555 1555 1555 1555 1556 1556 1556 1556 1555 1555 1554 1553 1552 1550 1548 1546 1545 1544 1543 1542 1541 1540 1539 1538 1537 1535 1534 1532 1531 1529 1527 1525 1522 1519 1517 1514 1512 1509 1506 1503 1500 1497 1494 1490 1487 1485 1481 1477 1472 1464 1457 1452 1448 1442 1438 1438 1437 1431 1427 1424 1422 1420 1418 1415 1411 1409
1533 1534 1535 1537 1538 1539 1541 1542 1544 1545 1547 1548 1549 1550 1551 1551 1552 1553 1553 1553 1554 1554 1554 1554 1554 1554 1554 1553 1553 1552 1551 1550 1548 1546 1544 1543 1542 1541 1540 1539 1538 1537 1536 1534 1533 1531 1529 1528 1526 1524 1521 1518 1515 1512 1509 1506 1503 1500 1497 1494 1491 1487 1483 1480 1478 1474 1470 1465 1459 1452 1447 1443 1438 1432 1431 1431 1427 1423 1421 1417 1412 1410 1409 1405 1401
1532 1533 1534 1536 1537 1538 1540 1542 1543 1544 1546 1547 1548 1549 1549 1550 1551 1551 1552 1552 1552 1553 1553 1553 1553 1553 1552 1551 1551 1550 1549 1548 1546 1544 1542 1541 1540 1538 1537 1536 1535 1534 1533 1531 1530 1528 1526 1525 1522 1520 1518 1515 1512 1509 1505 1502 1498 1494 1492 1489 1485 1482 1478 1474 1471 1468 1464 1459 1453 1448 1442 1437 1433 1428 1425 1424 1421 1418 1418 1415 1409 1405 1403 1400 1396
1530 1532 1533 1534 1536 1537 1539 1540 1542 1543 1545 1546 1547 1547 1548 1549 1549 1550 1550 1550 1551 1551 1551 1551 1551 1551 1550 1549 1549 1548 1547 1546 1544 1542 1540 1538 1537 1536 1535 1533 1532 1530 1529 1528 1526 1525 1523 1521 1518 1516 1514 1511 1508 1505 1502 1499 1495 1490 1487 1484 1480 1477 1473 1469 1466 1462 1459 1455 1448 1443 1439 1433 1428 1425 1422 1420 1418 1415 1413 1411 1406 1402 1399 1395 1391
1529 1530 1532 1533 1535 1536 1537 1539 1540 1542 1543 1544 1545 1546 1546 1547 1547 1548 1548 1549 1549 1549 1549 1549 1549 1549 1548 1548 1547 1546 1545 1544 1542 1539 1537 1536 1534 1533 1532 1530 1529 1527 1525 1523 1522 1520 1519 1517 1514 1512 1510 1507 1504 1502 1498 1495 1492 1488 1484 1480 1476 1473 1469 1465 1461 1458 1455 1450 1444 1440 1435 1429 1425 1423 1419 1416 1415 1412 1409 1406 1402 1398 1396 1391 1385
1528 1529 1530 1531 1533 1534 1536 1537 1538 1540 1541 1542 1543 1544 1544 1545 1546 1546 1546 1547 1547 1547 1547 1547 1547 1547 1547 1546 1545 1545 1543 1542 1540 1537 1536 1534 1532 1530 1528 1527 1525 1523 1521 1519 1517 1515 1514 1512 1509 1507 1505 1502 1499 1496 1493 1490 1486 1483 1479 1476 1472 1469 1465 1461 1457 1454 1450 1445 1440 1436 1432 1425 1422 1420 1416 1412 1411 1408 1405 1403 1399 1395 1393 1389 1382
1526 1527 1528 1530 1531 1532 1534 1535 1536 1538 1539 1540 1541 1542 1543 1543 1544 1544 1544 1545 1545 1545 1545 1546 1546 1546 1545 1545 1544 1543 1541 1540 1538 1536 1534 1532 1530 1528 1526 1524 1522 1520 1518 1516 1513 1511 1509 1507 1504 1501 1499 1496 1493 1490 1486 1483 1480 1476 1472 1470 1467 1464 1462 1458 1454 1450 1446 1442 1436 1432 1428 1423 1418 1416 1413 1410 1407 1404 1401 1399 1396 1392 1389 1386 1381
1523 1525 1526 1528 1529 1530 1532 1533 1534 1536 1537 1538 1539 1540 1540 1541 1542 1542 1542 1543 1543 1543 1544 1544 1544 1544 1543 1542 1541 1540 1539 1537 1535 1533 1531 1529 1527 1525 1523 1521 1519 1517 1515 1513 1510 1508 1505 1502 1500 1497 1493 1490 1487 1484 1480 1476 1473 1470 1466 1463 1461 1458 1456 1453 1451 1447 1443 1440 1434 1427 1424 1420 1415 1411 1410 1407 1404 1400 1396 1393 1390 1387 1383 1381 1377
1521 1522 1524 1525 1527 1529 1530 1531 1532 1534 1535 1536 1537 1538 1538 1539 1540 1540 1541 1541 1541 1542 1542 1542 1542 1541 1541 1540 1539 1538 1536 1534 1532 1530 1529 1526 1524 1523 1521 1519 1517 1514 1512 1510 1507 1504 1501 1498 1495 1492 1489 1485 1482 1479 1475 1472 1468 1464 1461 1457 1455 1452 1449 1446 1444 1441 1438 1435 1430 1423 1420 1417 1412 1407 1406 1404 1401 1396 1393 1389 1386 1383 1379 1376 1372
1518 1520 1522 1523 1525 1526 1528 1530 1531 1532 1533 1534 1535 1536 1537 1537 1538 1538 1539 1539 1540 1540 1540 1540 1539 1539 1538 1537 1536 1535 1533 1531 1529 1527 1525 1524 1521 1519 1518 1516 1514 1512 1509 1507 1504 1501 1498 1494 1491 1488 1485 1482 1479 1475 1471 1468 1463 1459 1455 1451 1448 1445 1442 1439 1437 1434 1431 1429 1425 1419 1415 1412 1408 1404 1401 1399 1397 1393 1390 1386 1382 1378 1375 1371 1367
1516 1518 1519 1521 1522 1524 1526 1528 1529 1530 1531 1532 1533 1534 1535 1535 1536 1537 1537 1537 1538 1538 1538 1537 1537 1536 1536 1535 1533 1532 1531 1529 1527 1524 1522 1520 1518 1516 1514 1512 1511 1508 1506 1503 1500 1497 1494 1490 1487 1484 1481 1478 1475 1472 1468 1463 1459 1454 1450 1445 1441 1437 1434 1433 1431 1428 1426 1423 1419 1415 1411 1408 1405 1401 1398 1395 1392 1389 1385 1381 1376 1373 1371 1366 1362
1514 1515 1517 1519 1520 1522 1524 1526 1527 1528 1529 1530 1531 1532 1533 1533 1534 1535 1535 1536 1536 1536 1535 1535 1534 1534 1533 1532 1531 1529 1528 1526 1524 1522 1519 1517 1515 1513 1511 1509 1507 1504 1502 1499 1496 1493 1490 1487 1484 1481 1478 1474 1471 1467 1464 1459 1454 1450 1445 1440 1436 1431 1427 1426 1423 1420 1418 1415 1412 1409 1406 1402 1399 1396 1393 1391 1388 1385 1381 1375 1371 1369 1367 1362 1358
1511 1513 1515 1517 1519 1520 1522 1524 1525 1526 1527 1528 1529 1530 1531 1532 1532 1533 1533 1533 1533 1533 1533 1532 1532 1531 1530 1529 1528 1527 1525 1523 1521 1519 1516 1514 1512 1509 1507 1504 1502 1500 1498 1495 1492 1489 1486 1483 1480 1477 1473 1470 1467 1463 1460 1455 1449 1445 1441 1436 1432 1427 1423 1420 1416 1412 1409 1406 1403 1400 1397 1395 1393 1390 1387 1385 1383 1381 1378 1372 1368 1366 1363 1359 1355
1509 1511 1513 1515 1517 1518 1520 1521 1523 1524 1525 1526 1527 1528 1529 1530 1530 1531 1531 1531 1531 1531 1530 1530 1529 1528 1528 1527 1525 1524 1522 1520 1518 1516 1513 1511 1508 1505 1502 1500 1498 1495 1493 1491 1488 1485 1482 1479 1476 1473 1470 1467 1463 1460 1455 1451 1446 1442 1438 1434 1429 1424 1421 1418 1413 1409 1404 1400 1396 1393 1390 1387 1386 1383 1381 1379 1377 1376 1373 1369 1365 1363 1359 1355 1353
1508 1510 1512 1513 1515 1516 1518 1519 1520 1522 1523 1524 1525 1526 1527 1527 1528 1528 1529 1529 1528 1528 1528 1527 1527 1526 1525 1524 1522 1521 1519 1517 1514 1512 1510 1507 1504 1501 1499 1496 1493 1491 1488 1485 1482 1480 1477 1474 1472 1469 1466 1463 1460 1455 1451 1448 1444 1439 1436 1432 1427 1423 1420 1416 1412 1408 1404 1398 1393 1389 1385 1381 1379 1377 1375 1374 1372 1370 1368 1365 1363 1360 1356 1353 1350
1506 1508 1510 1511 1513 1514 1515 1517 1518 1520 1521 1522 1523 1524 1524 1525 1526 1526 1526 1526 1525 1525 1525 1525 1525 1524 1523 1521 1519 1518 1516 1513 1511 1509 1506 1504 1501 1499 1496 1493 1490 1487 1484 1481 1478 1474 1471 1469 1467 1465 1462 1458 1455 1451 1447 1444 1440 1436 1432 1429 1426 1422 1419 1414 1410 1406 1402 1397 1392 1387 1382 1378 1375 1373 1371 1369 1367 1365 1364 1362 1359 1357 1354 1350 1347
1504 1506 1508 1509 1510 1512 1513 1515 1516 1518 1519 1520 1521 1521 1522 1522 1523 1523 1523 1523 1523 1523 1523 1523 1522 1521 1519 1518 1516 1514 1512 1510 1508 1505 1503 1501 1498 1495 1493 1490 1487 1484 1481 1478 1474 1471 1468 1465 1463 1460 1457 1453 1450 1447 1443 1440 1436 1432 1429 1425 1422 1418 1415 1410 1407 1403 1399 1394 1390 1385 1380 1376 1372 1369 1367 1365 1363 1361 1360 1358 1356 1353 1351 1348 1345
1502 1504 1505 1507 1508 1510 1511 1513 1514 1516 1517 1517 1518 1519 1519 1520 1520 1520 1521 1521 1521 1521 1520 1519 1518 1517 1516 1515 1513 1511 1509 1506 1504 1502 1500 1497 1495 1492 1490 1487 1485 1482 1478 1475 1471 1468 1465 1462 1459 1456 1453 1450 1446 1443 1439 1436 1432 1428 1425 1421 1417 1413 1410 1406 1403 1399 1395 1391 1387 1383 1378 1375 1371 1367 1365 1362 1359 1357 1356 1354 1351 1349 1346 1344 1342
1500 1501 1503 1505 1506 1508 1509 1511 1512 1513 1514 1515 1516 1516 1517 1517 1518 1518 1518 1518 1518 1517 1516 1516 1515 1515 1513 1512 1510 1508 1506 1503 1501 1499 1496 1494 1492 1489 1487 1485 1482 1479 1476 1472 1469 1466 1463 1459 1456 1453 1450 1447 1443 1439 1436 1433 1429 1425 1422 1418 1414 1409 1405 1402 1399 1396 1391 1387 1383 1380 1376 1373 1369 1366 1362 1359 1356 1354 1352 1349 1347 1344 1342 1340 1337
1497 1499 1501 1502 1504 1505 1507 1508 1509 1510 1511 1512 1513 1514 1514 1515 1515 1515 1515 1515 1514 1514 1513 1513 1512 1511 1510 1508 1507 1504 1502 1500 1498 1496 1493 1491 1489 1486 1484 1481 1479 1476 1473 1470 1467 1464 1460 1457 1454 1451 1448 1444 1440 1436 1433 1429 1425 1422 1418 1414 1409 1405 1402 1399 1396 1391 1387 1383 1380 1376 1372 1369 1367 1363 1360 1357 1353 1350 1348 1344 1342 1340 1338 1335 1333
1495 1497 1499 1500 1502 1503 1504 1506 1507 1508 1509 1509 1510 1511 1511 1512 1512 1512 1512 1511 1510 1510 1510 1509 1508 1507 1505 1504 1502 1500 1498 1496 1494 1492 1490 1487 1485 1482 1480 1478 1475 1473 1470 1467 1464 1461 1458 1455 1452 1449 1446 1442 1438 1433 1429 1425 1422 1418 1414 1410 1406 1403 1400 1396 1392 1387 1384 1380 1376 1372 1368 1365 1362 1359 1357 1354 1350 1348 1345 1341 1338 1336 1333 1331 1328
1493 1495 1496 1498 1499 1501 1502 1503 1504 1505 1506 1507 1507 1508 1509 1509 1509 1508 1508 1508 1507 1507 1506 1505 1504 1503 1501 1500 1498 1496 1494 1492 1490 1488 1485 1483 1480 1478 1476 1474 1471 1469 1466 1463 1460 1457 1455 1452 1450 1447 1443 1439 1435 1431 1427 1423 1419 1415 1411 1407 1404 1401 1398 1394 1389 1386 1383 1378 1374 1369 1365 1361 1358 1355 1352 1350 1347 1345 1343 1339 1335 1332 1330 1327 1325
1491 1492 1494 1495 1497 1498 1499 1500 1501 1502 1503 1504 1505 1505 1505 1505 1505 1505 1505 1504 1504 1504 1503 1502 1500 1499 1497 1495 1494 1492 1490 1488 1486 1484 1481 1479 1477 1474 1472 1470 1467 1464 1462 1459 1456 1454 1452 1449 1447 1444 1439 1435 1430 1426 1423 1419 1415 1411 1408 1405 1402 1398 1394 1390 1387 1384 1380 1375 1370 1366 1362 1358 1354 1351 1349 1346 1343 1341 1339 1336 1333 1329 1327 1325 1323
1488 1489 1491 1492 1494 1495 1496 1497 1498 1499 1500 1501 1502 1502 1502 1502 1502 1501 1502 1501 1501 1500 1499 1498 1497 1495 1493 1491 1490 1488 1486 1485 1483 1481 1479 1477 1475 1472 1470 1467 1464 1462 1459 1456 1454 1451 1449 1446 1443 1439 1434 1430 1425 1421 1418 1414 1411 1408 1405 1402 1398 1394 1390 1386 1383 1379 1374 1370 1367 1363 1359 1356 1352 1349 1346 1343 1340 1338 1336 1333 1330 1327 1325 1323 1321
1485 1486 1488 1489 1491 1492 1493 1494 1495 1496 1497 1498 1498 1498 1498 1498 1498 1499 1499 1498 1498 1497 1496 1494 1493 1491 1490 1488 1486 1485 1483 1481 1480 1478 1477 1475 1473 1470 1468 1465 1463 1460 1457 1455 1452 1449 1445 1442 1438 1435 1431 1427 1423 1419 1416 1412 1408 1404 1401 1398 1395 1391 1387 1383 1380 1375 1371 1367 1364 1361 1358 1355 1351 1348 1344 1340 1337 1335 1332 1330 1327 1325 1323 1321 1319
1482 1484 1485 1487 1488 1489 1490 1491 1492 1493 1494 1494 1494 1495 1495 1495 1495 1496 1495 1495 1494 1493 1492 1491 1489 1488 1486 1485 1484 1482 1481 1479 1478 1476 1474 1472 1470 1468 1465 1463 1460 1458 1455 1452 1449 1446 1442 1438 1435 1432 1429 1425 1422 1418 1415 1411 1407 1403 1399 1396 1393 1390 1385 1381 1377 1373 1369 1365 1362 1359 1356 1353 1349 1346 1343 1339 1335 1332 1330 1327 1325 1322 1321 1319 1318
1480 1481 1483 1484 1485 1486 1487 1488 1489 1490 1490 1490 1491 1491 1492 1492 1493 1492 1492 1491 1490 1489 1488 1487 1486 1485 1483 1482 1480 1479 1478 1477 1475 1473 1472 1470 1467 1465 1463 1460 1458 1455 1452 1450 1447 1444 1440 1437 1433 1430 1427 1424 1421 1417 1414 1411 1407 1403 1398 1394 1390 1387 1384 1380 1375 1371 1367 1363 1360 1356 1353 1350 1347 1344 1341 1337 1333 1330 1327 1325 1323 1321 1319 1318 1317
1478 1479 1481 1481 1482 1483 1484 1485 1486 1486 1486 1487 1487 1488 1489 1489 1489 1489 1488 1487 1487 1486 1485 1484 1483 1481 1480 1479 1477 1476 1475 1474 1472 1470 1469 1467 1465 1463 1461 1458 1455 1453 1450 1447 1445 1442 1439 1436 1433 1430 1427 1423 1420 1416 1413 1410 1406 1402 1398 1394 1389 1386 1382 1378 1373 1369 1365 1362 1359 1355 1351 1348 1345 1342 1338 1335 1332 1328 1326 1323 1321 1319 1318 1317 1316
1476 1477 1478 1479 1479 1480 1481 1482 1483 1483 1483 1484 1484 1485 1485 1486 1485 1485 1485 1484 1483 1483 1482 1481 1479 1478 1477 1476 1475 1474 1472 1471 1469 1468 1466 1464 1462 1460 1458 1456 1454 1452 1449 1445 1442 1440 1437 1434 1431 1428 1425 1422 1419 1415 1412 1408 1405 1401 1397 1393 1389 1384 1380 1375 1370 1366 1363 1360 1357 1353 1350 1347 1343 1340 1336 1333 1330 1327 1324 1322 1320 1318 1317 1316 1315
1472 1474 1475 1476 1477 1477 1478 1479 1479 1479 1480 1481 1481 1482 1482 1482 1482 1481 1481 1480 1480 1479 1478 1477 1476 1475 1474 1473 1472 1471 1470 1468 1467 1465 1463 1461 1459 1457 1455 1454 1451 1449 1446 1443 1440 1438 1435 1432 1429 1427 1424 1420 1418 1414 1411 1407 1404 1400 1396 1392 1387 1382 1377 1372 1367 1364 1361 1357 1354 1351 1348 1345 1342 1339 1335 1332 1328 1326 1323 1321 1320 1318 1317 1316 1315
1469 1470 1471 1472 1473 1474 1474 1475 1475 1476 1477 1477 1478 1478 1478 1478 1478 1478 1477 1477 1476 1475 1474 1474 1473 1472 1471 1470 1469 1468 1467 1466 1464 1463 1461 1459 1457 1454 1452 1450 1447 1444 1442 1440 1438 1436 1434 1431 1428 1425 1422 1419 1416 1413 1410 1407 1403 1400 1396 1392 1387 1381 1376 1370 1365 1362 1359 1356 1353 1350 1347 1343 1340 1337 1334 1331 1328 1325 1323 1321 1319 1318 1316 1316 1315
1467 1467 1468 1469 1470 1470 1471 1471 1472 1472 1473 1474 1474 1474 1474 1474 1474 1474 1473 1472 1472 1471 1471 1470 1469 1469 1468 1467 1466 1466 1465 1463 1462 1460 1458 1457 1454 1452 1450 1448 1445 1443 1440 1438 1436 1434 1432 1430 1427 1424 1421 1418 1415 1412 1409 1406 1402 1398 1395 1391 1387 1381 1376 1370 1366 1362 1358 1354 1351 1348 1345 1342 1339 1336 1333 1330 1327 1325 1323 1321 1319 1318 1316 1316 1315
1463 1464 1465 1466 1466 1467 1467 1467 1468 1469 1470 1470 1470 1470 1470 1471 1470 1470 1469 1468 1468 1467 1467 1466 1466 1465 1464 1464 1463 1463 1462 1461 1460 1458 1457 1455 1453 1451 1448 1446 1443 1441 1438 1436 1434 1432 1430 1428 1425 1422 1420 1417 1414 1411 1407 1404 1401 1396 1392 1388 1385 1381 1376 1371 1366 1362 1358 1353 1350 1347 1344 1341 1338 1335 1332 1329 1327 1324 1323 1321 1319 1318 1317 1316 1316
1459 1460 1461 1462 1462 1463 1463 1464 1465 1466 1466 1466 1466 1466 1466 1467 1466 1466 1465 1465 1464 1464 1464 1463 1462 1461 1460 1460 1460 1459 1458 1457 1456 1455 1453 1452 1449 1447 1445 1443 1441 1439 1436 1434 1432 1430 1428 1426 1423 1420 1418 1415 1412 1409 1406 1402 1399 1395 1391 1386 1383 1379 1375 1370 1364 1360 1356 1352 1348 1345 1342 1340 1337 1334 1331 1329 1326 1324 1323 1321 1320 1318 1317 1317 1316
1455 1456 1457 1457 1458 1458 1459 1460 1461 1461 1461 1462 1462 1462 1462 1463 1462 1462 1462 1461 1461 1461 1460 1460 1458 1457 1456 1456 1455 1454 1454 1453 1452 1450 1449 1447 1446 1444 1442 1440 1438 1436 1433 1431 1429 1427 1425 1423 1421 1418 1416 1413 1411 1408 1405 1401 1397 1394 1390 1386 1382 1378 1374 1370 1364 1359 1354 1351 1347 1344 1341 1339 1336 1333 1331 1328 1327 1325 1323 1321 1320 1319 1318 1317 1317
1452 1452 1452 1453 1454 1454 1455 1456 1456 1457 1457 1458 1458 1459 1459 1459 1459 1458 1458 1458 1458 1458 1457 1456 1455 1454 1453 1452 1451 1450 1450 1449 1448 1446 1445 1444 1443 1441 1439 1438 1436 1433 1431 1429 1426 1424 1423 1421 1419 1416 1414 1411 1409 1406 1403 1400 1396 1392 1389 1385 1381 1377 1374 1370 1365 1360 1355 1350 1347 1344 1341 1339 1336 1333 1330 1328 1327 1325 1323 1322 1321 1319 1318 1318 1318
1447 1448 1448 1449 1450 1450 1451 1452 1452 1453 1453 1454 1455 1455 1456 1455 1455 1455 1454 1454 1454 1454 1454 1453 1452 1450 1449 1448 1448 1447 1446 1445 1444 1443 1442 1441 1440 1439 1437 1436 1433 1431 1429 1427 1424 1422 1420 1418 1417 1415 1412 1410 1407 1404 1401 1398 1394 1391 1387 1384 1380 1377 1373 1369 1365 1360 1355 1351 1347 1344 1341 1339 1336 1333 1331 1329 1327 1325 1324 1323 1321 1320 1320 1319 1319
1442 1443 1444 1445 1445 1446 1447 1448 1448 1449 1449 1449 1450 1451 1452 1452 1451 1451 1450 1450 1450 1450 1450 1450 1448 1447 1446 1445 1444 1444 1443 1442 1441 1440 1439 1438 1437 1436 1435 1433 1431 1430 1428 1425 1423 1420 1418 1416 1415 1413 1411 1409 1406 1403 1400 1397 1393 1390 1386 1383 1380 1376 1372 1368 1365 1361 1356 1351 1347 1344 1341 1339 1336 1333 1331 1329 1328 1326 1325 1324 1323 1322 1321 1320 1320
1437 1438 1439 1440 1441 1442 1442 1443 1443 1444 1444 1445 1446 1446 1447 1447 1447 1446 1446 1446 1446 1446 1446 1446 1444 1443 1442 1441 1441 1441 1440 1439 1438 1437 1436 1435 1434 1433 1432 1431 1429 1427 1425 1423 1421 1419 1416 1414 1412 1411 1410 1408 1405 1403 1400 1396 1393 1389 1386 1382 1379 1376 1372 1368 1364 1361 1357 1352 1348 1344 1341 1339 1336 1334 1332 1330 1328 1327 1326 1325 1324 1323 1322 1322 1322
1432 1433 1434 1435 1436 1437 1437 1437 1438 1439 1440 1440 1441 1442 1443 1443 1443 1442 1442 1442 1442 1442 1442 1441 1441 1440 1439 1438 1438 1437 1436 1436 1435 1434 1433 1432 1431 1430 1429 1428 1426 1425 1423 1421 1419 1417 1414 1412 1410 1408 1407 1405 1403 1401 1399 1396 1392 1389 1386 1382 1379 1375 1372 1368 1365 1362 1358 1354 1349 1345 1342 1339 1336 1334 1332 1331 1329 1328 1327 1326 1325 1324 1324 1324 1324
1427 1428 1429 1430 1431 1431 1432 1433 1434 1434 1435 1436 1436 1437 1438 1438 1438 1439 1439 1438 1438 1438 1437 1437 1437 1436 1435 1435 1434 1433 1433 1432 1432 1431 1430 1429 1428 1427 1425 1424 1423 1422 1420 1418 1416 1414 1412 1410 1408 1405 1404 1402 1400 1399 1396 1394 1391 1389 1386 1383 1379 1376 1372 1369 1366 1362 1359 1355 1351 1347 1343 1340 1337 1335 1333 1331 1330 1329 1328 1327 1326 1326 1326 1326 1326
1422 1423 1424 1425 1426 1426 1427 1428 1429 1430 1431 1431 1432 1433 1433 1434 1434 1435 1435 1434 1434 1434 1434 1433 1433 1432 1432 1431 1430 1430 1429 1429 1428 1428 1427 1426 1424 1423 1422 1421 1420 1419 1417 1415 1413 1411 1409 1407 1405 1403 1401 1399 1398 1396 1394 1392 1389 1387 1384 1382 1379 1376 1372 1369 1366 1363 1359 1356 1352 1348 1344 1341 1338 1336 1334 1332 1331 1330 1329 1328 1328 1327 1327 1328 1328
1416 1417 1418 1419 1420 1421 1422 1423 1424 1425 1426 1427 1428 1428 1429 1429 1430 1430 1430 1431 1431 1430 1430 1430 1430 1429 1429 1428 1427 1427 1426 1426 1425 1424 1423 1422 1421 1420 1419 1418 1417 1415 1414 1412 1410 1408 1406 1404 1402 1400 1399 1397 1395 1393 1391 1389 1387 1385 1382 1380 1377 1375 1372 1369 1366 1363 1360 1357 1353 1350 1346 1342 1339 1337 1335 1333 1332 1331 1330 1330 1329 1329 1330 1330 1331
1410 1411 1412 1413 1414 1415 1416 1418 1419 1420 1421 1422 1423 1424 1424 1425 1426 1426 1426 1427 1427 1427 1427 1427 1426 1426 1426 1425 1424 1424 1423 1423 1422 1421 1420 1419 1418 1417 1416 1415 1413 1412 1410 1409 1407 1405 1403 1401 1399 1398 1396 1394 1392 1390 1388 1386 1384 1382 1380 1378 1376 1373 1371 1368 1366 1363 1360 1357 1354 1351 1348 1344 1340 1338 1336 1334 1333 1332 1332 1331 1331 1332 1332 1332 1333
1405 1406 1407 1408 1409 1410 1412 1413 1414 1415 1416 1417 1418 1419 1420 1420 1421 1422 1422 1423 1423 1423 1423 1423 1423 1423 1423 1422 1422 1421 1421 1420 1419 1418 1416 1416 1415 1414 1413 1412 1410 1409 1407 1406 1404 1402 1400 1398 1396 1394 1393 1391 1389 1387 1385 1383 1381 1379 1377 1375 1373 1371 1369 1367 1365 1362 1359 1357 1354 1351 1349 1346 1342 1339 1337 1336 1335 1334 1333 1333 1333 1333 1333 1334 1335
1399 1401 1402 1403 1405 1406 1407 1408 1409 1410 1412 1413 1414 1415 1416 1416 1417 1418 1418 1419 1419 1419 1419 1419 1420 1420 1420 1419 1419 1419 1418 1417 1416 1415 1414 1413 1411 1410 1409 1408 1407 1405 1404 1402 1401 1399 1397 1395 1393 1391 1389 1387 1386 1384 1382 1380 1379 1377 1375 1373 1371 1369 1367 1365 1363 1361 1359 1356 1354 1352 1349 1347 1344 1341 1339 1337 1336 1335 1335 1335 1334 1334 1335 1336 1336